Change the Weather History Date:

Monday, May 20, 2013

  Actual Average Record
Temperature  
Mean Temperature 70 °F -  
Max Temperature 80 °F 77 °F 91 °F (2005)
Min Temperature 62 °F 57 °F 53 °F (2000)
Cooling Degree Days 6    
Growing Degree Days 20 (Base 50)    
Moisture  
Dew Point 66 °F    
Average Humidity 80    
Maximum Humidity 100    
Minimum Humidity 63    
Precipitation  
Precipitation 0.54 in - - ()
Sea Level Pressure  
Sea Level Pressure 29.73 in    
Wind  
Wind Speed 13 mph (South)    
Max Wind Speed 39 mph    
Max Gust Speed 52 mph    
Visibility 8 miles    
Events Rain , Thunderstorm    
Averages and records for this station are not official NWS values.
T = Trace of Precipitation, MM = Missing Value Source: NWS Daily Summary

Daily Weather History Graph

Daily Weather History Graph

Search for Another Location

Airport or City:

Trip Planner

Search our weather history database for the weather conditions in past years. The results will help you decide how hot, cold, wet, or windy it might be!

Date:

Astronomy

May. 20, 2013 Rise Set
Actual Time 6:12 AM CDT 8:23 PM CDT
Civil Twilight 5:43 AM CDT 8:52 PM CDT
Nautical Twilight 5:08 AM CDT 9:27 PM CDT
Astronomical Twilight 4:30 AM CDT 10:06 PM CDT
Moon 3:41 PM CDT (5/20) 2:58 AM CDT (5/20)
Length of Visible Light 15h 08m
Length of Day
14h 11m
Waxing Gibbous, 75% of the Moon is Illuminated
May 20
Waxing Gibbous
May 24
Full
May 31
Last Quarter
Jun 8
New
Jun 16
First Quarter

Hourly Weather History & Observations

Time (CDT) Temp. Dew Point Humidity Pressure Visibility Wind Dir Wind Speed Gust Speed Precip Events Conditions
12:53 AM 78.1 °F 66.9 °F 68% 29.70 in 10.0 mi South 11.5 mph - N/A   Partly Cloudy
1:53 AM 77.0 °F 66.9 °F 71% 29.69 in 10.0 mi South 12.7 mph - N/A   Clear
3:53 AM 75.0 °F 66.9 °F 76% 29.69 in 10.0 mi South 11.5 mph - N/A   Clear
4:53 AM 73.9 °F 66.9 °F 79% 29.70 in 10.0 mi South 11.5 mph 20.7 mph N/A   Clear
5:53 AM 72.0 °F 66.0 °F 81% 29.72 in 10.0 mi South 10.4 mph - N/A   Clear
6:21 AM 73.4 °F 66.2 °F 78% 29.75 in 10.0 mi South 13.8 mph - N/A   Mostly Cloudy
7:53 AM 73.0 °F 68.0 °F 84% 29.76 in 10.0 mi South 10.4 mph - N/A   Overcast
9:53 AM 73.9 °F 69.1 °F 85% 29.78 in 7.0 mi South 15.0 mph 21.9 mph N/A   Overcast
10:53 AM 77.0 °F 71.1 °F 82% 29.75 in 8.0 mi South 11.5 mph - N/A   Overcast
11:41 AM 78.8 °F 69.8 °F 74% 29.78 in 10.0 mi South 15.0 mph 26.5 mph N/A   Overcast
11:53 AM 79.0 °F 69.1 °F 72% 29.75 in 10.0 mi South 15.0 mph 27.6 mph N/A   Overcast
12:53 PM 78.1 °F 70.0 °F 76% 29.75 in 9.0 mi South 12.7 mph 26.5 mph N/A   Overcast
1:53 PM 78.1 °F 70.0 °F 76% 29.74 in 9.0 mi South 10.4 mph - N/A   Overcast
2:53 PM 78.1 °F 71.1 °F 79% 29.73 in 8.0 mi South 9.2 mph - N/A   Overcast
3:53 PM 77.0 °F 71.1 °F 82% 29.72 in 8.0 mi South 8.1 mph - N/A   Overcast
4:53 PM 77.0 °F 71.1 °F 82% 29.68 in 7.0 mi SSE 9.2 mph - N/A   Mostly Cloudy
5:43 PM 77.0 °F 71.6 °F 83% 29.74 in 7.0 mi South 6.9 mph - N/A Thunderstorm Mostly Cloudy
5:53 PM 72.0 °F 69.1 °F 91% 29.79 in 3.0 mi SW 39.1 mph 51.8 mph 0.07 in Rain , Thunderstorm Light Thunderstorms and Rain
5:56 PM 64.4 °F 64.4 °F 100% 29.82 in 1.5 mi SW 34.5 mph 51.8 mph 0.13 in Rain , Thunderstorm Heavy Thunderstorms and Rain
6:01 PM 62.6 °F 62.6 °F 100% 29.80 in 1.0 mi SW 19.6 mph 43.7 mph 0.27 in Rain , Thunderstorm Heavy Thunderstorms and Rain
6:11 PM 64.4 °F 60.8 °F 88% 29.74 in 2.0 mi SSW 8.1 mph 20.7 mph 0.46 in Rain , Thunderstorm Thunderstorms and Rain
6:20 PM 64.4 °F 60.8 °F 88% 29.72 in 10.0 mi South 6.9 mph - 0.47 in Rain , Thunderstorm Light Thunderstorms and Rain
6:53 PM 69.1 °F 66.9 °F 93% 29.63 in 9.0 mi South 10.4 mph 21.9 mph 0.47 in Rain , Thunderstorm Light Rain
7:02 PM 73.4 °F 68.0 °F 83% 29.62 in 10.0 mi South 19.6 mph 28.8 mph 0.00 in Rain Light Rain
7:53 PM 71.1 °F 66.0 °F 84% 29.65 in 10.0 mi SSE 3.5 mph - 0.00 in   Clear
9:46 PM 73.4 °F 60.8 °F 65% 29.76 in 10.0 mi WNW 12.7 mph 16.1 mph 0.00 in Rain , Thunderstorm Light Rain
9:53 PM 71.1 °F 63.0 °F 75% 29.71 in 10.0 mi SSE 8.1 mph 16.1 mph 0.00 in Rain , Thunderstorm Light Rain
10:04 PM 71.6 °F 60.8 °F 69% 29.75 in 10.0 mi West 15.0 mph - 0.00 in Rain Light Rain
10:53 PM 71.1 °F 57.9 °F 63% 29.75 in 10.0 mi SSE 10.4 mph - 0.00 in   Clear
11:53 PM 64.9 °F 61.0 °F 87% 29.78 in 10.0 mi SSE 4.6 mph - N/A   Clear